User: anonymous   Login
Location: Unspecified
(0.0000°N, 0.0000°E)
Time: 06:58:02
(UTC+00:00)
Language:

COMPASS 1 - Orbit

View from above orbital plane
View from above orbital plane
View from above satellite
View from above satellite

Ground track
Ground track

The orbit data is extracted from the following two-line orbital elements,

1 32787U 08021E   17202.87513867 +.00000286 +00000-0 +32983-4 0  9990
2 32787 097.5578 234.6469 0013277 029.5606 330.6362 14.92636167500623
Epoch (UTC): 21 July 2017 21:00:11
Eccentricity: 0.0013277
inclination: 97.5578°
perigee height: 580 km
apogee height: 599 km
right ascension of ascending node: 234.6469°
argument of perigee: 29.5606°
revolutions per day: 14.92636167
mean anomaly at epoch: 330.6362°
orbit number at epoch: 50062

The dashed part of the orbit path shows where the satellite is in the earth's shadow,  

DLR